TimeEDT,TemperatureF,Dew PointF,Humidity,Sea Level PressureIn,VisibilityMPH,Wind Direction,Wind SpeedMPH,Gust SpeedMPH,PrecipitationIn,Events,Conditions,WindDirDegrees,DateUTC
12:02 AM,55.4,55.4,100,30.20,2.5,Calm,Calm,-,N/A,,Clear,0,2012-10-04 04:02:00
12:12 AM,57.2,55.4,94,30.21,4.0,Calm,Calm,-,N/A,,Clear,0,2012-10-04 04:12:00
12:53 AM,55.0,54.0,96,30.19,5.0,Calm,Calm,-,N/A,,Clear,0,2012-10-04 04:53:00
1:53 AM,55.0,53.1,93,30.20,8.0,Calm,Calm,-,N/A,,Clear,0,2012-10-04 05:53:00
2:53 AM,55.0,53.1,93,30.21,9.0,Calm,Calm,-,N/A,,Clear,0,2012-10-04 06:53:00
3:53 AM,54.0,53.1,97,30.20,9.0,Calm,Calm,-,N/A,,Partly Cloudy,0,2012-10-04 07:53:00
4:53 AM,53.1,52.0,96,30.21,8.0,Calm,Calm,-,N/A,,Mostly Cloudy,0,2012-10-04 08:53:00
5:53 AM,53.1,52.0,96,30.23,8.0,Calm,Calm,-,N/A,,Clear,0,2012-10-04 09:53:00
6:53 AM,52.0,51.1,97,30.25,10.0,Calm,Calm,-,N/A,,Clear,0,2012-10-04 10:53:00
7:53 AM,51.1,50.0,96,30.27,7.0,Calm,Calm,-,0.01,,Clear,0,2012-10-04 11:53:00
8:53 AM,55.9,54.0,93,30.28,9.0,Calm,Calm,-,N/A,,Clear,0,2012-10-04 12:53:00
9:53 AM,61.0,55.9,83,30.29,10.0,South,5.8,-,N/A,,Clear,190,2012-10-04 13:53:00
10:53 AM,66.0,57.0,73,30.28,10.0,West,6.9,-,N/A,,Clear,260,2012-10-04 14:53:00
11:53 AM,70.0,57.9,65,30.28,10.0,West,8.1,-,N/A,,Partly Cloudy,280,2012-10-04 15:53:00
12:53 PM,72.0,57.0,59,30.28,10.0,Variable,5.8,-,N/A,,Mostly Cloudy,0,2012-10-04 16:53:00
1:53 PM,73.0,55.0,53,30.25,10.0,West,6.9,-,N/A,,Partly Cloudy,270,2012-10-04 17:53:00
2:53 PM,73.0,55.0,53,30.23,10.0,SSW,3.5,-,N/A,,Clear,200,2012-10-04 18:53:00
3:53 PM,73.9,54.0,50,30.22,10.0,SSW,6.9,-,N/A,,Partly Cloudy,210,2012-10-04 19:53:00
4:53 PM,75.0,54.0,48,30.21,10.0,SW,4.6,-,N/A,,Partly Cloudy,230,2012-10-04 20:53:00
5:53 PM,73.0,54.0,51,30.20,10.0,SW,3.5,-,N/A,,Clear,220,2012-10-04 21:53:00
6:53 PM,71.1,55.0,57,30.21,10.0,WSW,3.5,-,N/A,,Clear,240,2012-10-04 22:53:00
7:53 PM,64.9,57.9,78,30.21,10.0,Calm,Calm,-,N/A,,Clear,0,2012-10-04 23:53:00
8:53 PM,61.0,57.9,90,30.21,10.0,Calm,Calm,-,N/A,,Clear,0,2012-10-05 00:53:00
9:53 PM,59.0,57.0,93,30.21,6.0,Calm,Calm,-,N/A,,Clear,0,2012-10-05 01:53:00
10:53 PM,57.9,55.9,93,30.22,5.0,Calm,Calm,-,N/A,,Clear,0,2012-10-05 02:53:00
11:53 PM,55.9,55.0,97,30.22,3.0,Calm,Calm,-,N/A,,Clear,0,2012-10-05 03:53:00